www.pogodaiklimat.ru

Погода и климат >> Архив погоды >> Россия >> Ямало-Ненецкий АО >> Полуй


ПОГОДА в Полуе

  • Прогноз погоды в Полуе
  • Монитор погоды в Полуе

АРХИВ ПОГОДЫ в Полуе

Время (UTC), дата Ветер
(напр.,м/с)
 
Видим.   Явления Облачность Т
(С)
Тd
(С)
f
(%)
Тe
(С)
Тes
(С)
Комфортность P
(гПа)
Po
(гПа)
Тmin
(С)
Tmax
(С)
R
(мм)
R24
(мм)
S
(см)
18 10.02 Ю 3 10 км слаб. снег 10/0
[As op]
-22.2 -25.5 74 -30 -30 1015.2 1010.4
21 10.02 Ю 3 20 км слаб. снег 10/0
[As op]
-20.2 -23.3 76 -28 -28 1014.3 1009.5
00 11.02 ЮЗ 3 н/о н/о -17.8 -20.8 77 -25 -25 1013.7 1008.9
03 11.02 ЮЗ 3 10 км слаб. снег 10/3 300 м
[Frnb As op]
-16.8 -19.6 79 -24 -24 1013.5 1008.8 -23.3 0.8 60
06 11.02 Ю 3 10 км слаб. снег 10/3 300 м
[Frnb As op]
-15.7 -18.5 79 -22 -22 1012.8 1008.1
09 11.02 Ю 3 10 км слаб. снег 10/3 300 м
[Frnb As op]
-14.0 -16.6 81 -20 -20 1012.2 1007.5
12 11.02 ЮЗ 3 10 км слаб. снег 10/4 300 м
[Frnb As op]
-12.4 -14.8 82 -18 -18 1011.6 1007.0
15 11.02 ЮЗ 3 10 км слаб. снег {метель} 10/4 300 м
[Frnb As op]
-10.8 -13.0 84 -17 -17 1011.3 1006.7 0.7
18 11.02 ЮЗ 2 20 км слаб. снег 10/0
[As op]
-9.8 -11.9 85 -14 -14 1011.4 1006.8
21 11.02 Ю 1 20 км слаб. снег 10/5 300 м
[Frnb As op]
-9.0 -10.8 87 -11 -11 1011.2 1006.6
00 12.02 ЮЗ 2 н/о н/о -8.1 -9.7 88 -13 -13 1010.6 1006.0
03 12.02 ЮЗ 3 50 км 10/0
[Ac As]
-7.1 -8.5 90 -13 -13 1010.0 1005.4 -10.8 0.2 60
06 12.02 ЮЗ 3 н/о н/о -6.7 -8.2 89 -12 -12 1010.2 1005.7
09 12.02 ЮЗ 2 20 км слаб. снег 10/0
[As op]
-6.7 -8.3 88 -11 -11 1010.6 1006.1
12 12.02 ЮЗ 2 н/о н/о -7.9 -9.6 88 -12 -12 1011.9 1007.3
15 12.02 ЮЗ 2 50 км 8/0
[Ac As]
-9.5 -11.2 87 -14 -14 1012.7 1008.1 -6.6 0.7
18 12.02 ЮЗ 2 н/о н/о -10.0 -11.7 87 -15 -15 1013.2 1008.6
21 12.02 Ю 2 50 км 4/0
[Ci sp]
-9.3 -11.1 87 -14 -14 1013.3 1008.7
00 13.02 Ю 2 н/о н/о -11.6 -13.3 87 -16 -16 1012.8 1008.2
03 13.02 Ю 2 50 км 6/0
[Ci sp]
-11.6 -13.4 86 -16 -16 1011.9 1007.3 -11.6 59
06 13.02 Ю 2 н/о н/о -9.4 -11.0 88 -14 -14 1010.5 1005.9 -12.6
09 13.02 ЮЗ 4 50 км 10/0
[Ac As]
-7.2 -8.8 88 -14 -14 1009.5 1004.9
12 13.02 ЮЗ 3 н/о н/о -7.0 -8.7 88 -13 -13 1008.7 1004.2
15 13.02 ЮЗ 4 50 км 10/0
[As op]
-6.4 -8.2 87 -13 -13 1008.1 1003.6 -6.4
18 13.02 ЮЗ 4 н/о н/о -5.3 -7.4 85 -12 -12 1007.5 1003.0
21 13.02 ЮЗ 3 50 км 10/0
[Ac As]
-6.3 -8.5 84 -12 -12 1007.2 1002.6
00 14.02 Ю 2 н/о н/о -9.5 -11.2 87 -14 -14 1006.8 1002.2
03 14.02 Ю 2 50 км 10/0
[Ac As]
-7.1 -8.7 88 -12 -12 1005.0 1000.5 -9.6 59
06 14.02 Ю 3 н/о н/о -4.9 -6.4 89 -10 -10 1001.7 997.2
09 14.02 ЮЗ 5 4000 м слаб. снег {метель} 10/0 300 м
[As op]
-4.5 -6.0 89 -12 -12 998.8 994.3
12 14.02 ЮЗ 5 н/о н/о -4.8 -7.0 85 -12 -12 997.6 993.1
15 14.02 З 5-10
{10}
10 км слаб. снег {метель} 10/8 300 м
[Frnb As op]
-4.7 -6.7 86 -12 -12 998.2 993.8 -4.2 2
18 14.02 С 5
{11}
4000 м слаб. снег {метель} 10/10 300 м
[Frnb Ns]
-11.0 -13.0 85 -19 -19 1000.0 995.5
21 14.02 С 4 50 км позёмок {снег} 10/0
[As trans]
-16.0 -18.8 79 -24 -24 1004.6 999.9
00 15.02 С 1 н/о н/о -20.8 -23.8 77 -24 -24 1007.8 1003.0
03 15.02 штиль 0 50 км ясно -23.1 -26.5 74 -23 -23 1010.2 1005.4 -23.1 3 63
06 15.02 Ю 1 н/о н/о -22.1 -25.3 75 -25 -25 1011.3 1006.5 -24.2
09 15.02 ЮЗ 1 50 км ясно -19.6 -22.8 76 -23 -22 1012.2 1007.5
12 15.02 ЮВ 1 50 км ясно -20.6 -23.5 77 -24 -24 1012.1 1007.3
15 15.02 ЮВ 1 50 км ясно -21.0 -23.7 79 -24 -24 1011.7 1006.9 -18.7
18 15.02 В 2 н/о н/о -23.7 -26.8 76 -30 -30 1010.8 1005.9
21 15.02 ЮВ 1 50 км ясно -25.6 -29.2 72 -29 -29 1009.5 1004.6
00 16.02 ЮВ 1 н/о н/о -25.8 -29.3 72 -29 -29 1008.1 1003.2
03 16.02 штиль 0 50 км ясно -25.9 -29.1 74 -26 -26 1007.4 1002.4 -28.8 63
06 16.02 ЮВ 1 50 км [диам. изморози 2 мм] ясно -23.7 -27.2 73 -27 -26 1006.2 1001.4
09 16.02 штиль 0 50 км ясно -23.2 -26.6 74 -23 -22 1005.5 1000.7
12 16.02 ЮВ 1 н/о н/о -24.4 -27.8 73 -28 -28 1004.2 999.4
15 16.02 ЮВ 2 50 км [диам. изморози 2 мм] 4/0
[Ci sp]
-27.4 -31.0 71 -34 -34 опасность
обморожения
1002.9 998.0 -21.8
18 16.02 Ю 1 50 км 10/0
[Cs]
-26.6 -30.2 71 -30 -30 1001.4 996.5
21 16.02 ЮВ 2 50 км 10/0
[Cs]
-26.5 -30.2 71 -33 -33 опасность
обморожения
999.9 995.1
00 17.02 Ю 2 н/о н/о -26.1 -29.6 72 -33 -33 опасность
обморожения
997.9 993.0
03 17.02 Ю 2 20 км слаб. снег [диам. изморози 2 мм] 10/0
[As op]
-22.3 -25.5 75 -29 -29 996.3 991.6 -27.7 0.0 63
06 17.02 Ю 3 н/о н/о -19.5 -22.5 77 -27 -27 995.4 990.7
09 17.02 Ю 2 50 км {снег} [диам. изморози 2 мм] 9/4 600 м
[Sc Ac trans]
-18.7 -21.6 78 -24 -24 994.8 990.1
12 17.02 Ю 2 н/о н/о -18.0 -20.8 79 -23 -23 994.2 989.5
15 17.02 Ю 1 20 км слаб. снег [диам. изморози 2 мм] 9/0
[Ac As]
-17.6 -20.3 79 -20 -20 993.6 988.9 -17.6 0.7

 

Местоположение метеостанции Полуй (Ямало-Ненецкий АО, Россия): широта 66.03 долгота 68.68 высота над уровнем моря 36 м.

В архиве по умолчанию представлена погода в Полуе за последнюю неделю. Архивные данные за месяц целиком и за предыдущие месяцы, начиная с января 2011 года, Вы можете получить, выбрав интересующий диапазон дат из раскрывающегося списка и нажав кнопку "Ввод!".


*Определитесь, кто Вы:
робот инопланетянин человек

Внимание! Время в таблицах - всемирное. Для получения местного времени необходимо прибавить поправку, которая равна 5 ч.

Смотрите также архив погоды в соседних городах и на ближайших метеорологических станциях:

Погода в Белоярске (Ямало-Ненецкий АО, Россия) (97 км)
Погода в Салехарде (Ямало-Ненецкий АО, Россия) (106 км)
Погода в Питляре (Ямало-Ненецкий АО, Россия) (127 км)
Погода в Харпе (Ямало-Ненецкий АО, Россия) (155 км)
Погода в Лонг-Югане (Ямало-Ненецкий АО, Россия) (175 км)
Погода в Надыме (Ямало-Ненецкий АО, Россия) (193 км)
Погода в Мужах (Ямало-Ненецкий АО, Россия) (195 км)
Погода в Ныде (Ямало-Ненецкий АО, Россия) (201 км)
Погода в Елецкой (Коми, Россия) (233 км)
Погода в Новом Порте (Ямало-Ненецкий АО, Россия) (260 км)

Пояснения к столбцам:

Ветер - указаны скорость ветра в м/с - средняя за 10 мин, порывы в срок и между сроками (в фигурных скобках) и направление, откуда дует ветер: С - северный, СВ - северо-восточный, В - восточный, ЮВ - юго-восточный, Ю - южный, ЮЗ - юго-западный, З - западный, СЗ - северо-западный.
Видимость - горизонтальная дальность видимости в метрах или километрах. При видимости от 1 до 10 км при отсутствии осадков обычно наблюдается дымка, при ухудшении видимости до 1 км и менее - туман. В сухую погоду видимость может ухудшаться дымом, пылью или мглою.
Явления - указаны атмосферные явления, наблюдавшиеся в срок или в последний час перед сроком; фигурными скобками обозначены явления, наблюдавшиеся между сроками (за 1-3 часа до срока); квадратными скобками обозначены град или гололедные отложения с указанием их диаметра в мм.
Облачность - указаны через наклонную черту общая и нижняя облачность в баллах и высота нижней границы облаков в метрах; квадратными скобками обозначены формы облаков: Ci - перистые, Cs - перисто-слоистые, Cc - перисто-кучевые, Ac - высококучевые, As - высокослоистые, Sc - слоисто-кучевые, Ns - слоисто-дождевые, Cu - кучевые, Cb - кучево-дождевые. Подробнее классификацию облаков см. в Атласе облаков (PDF).
T - Температура воздуха - температура, измеренная на высоте 2 м над землей.
Td - Температура точки росы - температура, при понижении до которой содержащийся в воздухе водяной пар достигнет насыщения.
f - Относительная влажность воздуха - влажноcть воздуха, измеренная на высоте 2 м над землей.
Te - Эффективная температура - температура, которую ощущает одетый по сезону человек в тени. Характеристика душности погоды. При расчете учитывается влияние влажности воздуха и скорости ветра на теплоощущения человека.
Tes - Эффективная температура на солнце - температура, которую ощущает человек, с поправкой на солнечный нагрев. Характеристика знойности погоды. Зависит от высоты солнца над горизонтом, облачности и скорости ветра. Ночью, в пасмурную погоду, а также при ветре 12 м/с и более поправка равна нулю.
P - Атмосферное давление - приведенное к уровню моря атмосферное давление.
Po - Атмосферное давление - измеренное на уровне метеостанции атмосферное давление.
Tmin - Минимальная температура - минимум температуры воздуха на высоте 2 м над землей.
Tmax - Максимальная температура - максимум температуры воздуха на высоте 2 м над землей.
R - Количество осадков - Количество выпавших осадков за период времени, мм. При наведении курсора мыши на число - период времени, за который выпало указанное количество осадков.
R24 - Количество осадков - Количество выпавших осадков за 24 часа, мм.
S - Снежный покров - Высота снежного покрова, см. При наведении курсора мыши на число - состояние снежного покрова и степень покрытия местности в баллах.